{"data":{"norad_id":40959,"intl_designator":"2015-057B","name":"LINGQIAO VIDEO A","alt_names":[],"object_type":"PAYLOAD","status":"ACTIVE","operator":null,"country":"PRC","launch_date":"2015-10-07","launch_site_code":"JSC","launch_vehicle":null,"mission":null,"orbit_class":"UNKNOWN","rcs_meters":0.453,"size_class":null,"mass_kg":null,"dimensions":null,"purposes":[],"wikipedia_slug":null,"has_3d_model":false,"image_url":null,"decayed_at":null,"tle_current":{"epoch":"2026-09-20T04:15:45.789984Z","epoch_age_seconds":69104,"freshness":"FRESH","line1":"1 40959U 15057B   26263.17761331  .00000189  00000+0  33246-4 0  9992","line2":"2 40959  97.6719 253.3407 0016016 325.7716  34.2461 14.77495617589437","mean_motion":14.77495617,"eccentricity":0.0016016,"inclination_deg":97.6719,"raan_deg":253.3407,"arg_perigee_deg":325.7716,"mean_anomaly_deg":34.2461,"bstar":3.3246e-5,"rev_number":58943,"period_min":97.462218055433,"perigee_km":626.00459035012,"apogee_km":648.4762472981,"semimajor_km":7015.3774188241,"source":"CELESTRAK","updated_at":"2026-09-20T09:00:14.108079Z"}}}